Hourly Data Report for November 08, 2019

MIRAMICHI RCS
NEW BRUNSWICK
Current Station Operator: ECCC - MSC

47°00'34.000" N
65°27'54.000" W
33.00 m
8100989
71744
ACQ

Download Data

Hourly Data (November 2019)
Hourly Data Report for November 8, 2019
TIME
LST
Temp Definition
°C
Dew Point Definition
°C
Rel Hum Definition
%
Precip. Amount Definition
mm

Wind Dir Definition
10's deg

Wind Spd Definition
km/h
Visibility Definition
km
Stn Press Definition
kPa
Hmdx Definition


Wind Chill Definition


Weather Definition


00:00 0.1 -0.4 96 0.5 2 LegendMM   100.90     LegendNANA
01:00 0.0 -0.6 96 0.2 2 LegendMM   100.84     LegendNANA
02:00 -0.2 -0.9 95 0.6 1 LegendMM   100.82     LegendNANA
03:00 -0.6 -1.4 94 0.2 2 LegendMM   100.79     LegendNANA
04:00 -0.6 -1.3 95 0.2 0 LegendMM   100.73     LegendNANA
05:00 -1.0 -1.9 93 0.2 2 LegendMM   100.68     LegendNANA
06:00 -1.4 -2.6 92 0.0 2 LegendMM   100.61     LegendNANA
07:00 -1.7 -3.1 90 0.0 1 LegendMM   100.59     LegendNANA
08:00 -2.1 -3.7 89 0.2 1 LegendMM   100.59     LegendNANA
09:00 -2.2 -4.1 87 0.0 1 LegendMM   100.57     LegendNANA
10:00 -1.8 -4.3 83 0.0 1 LegendMM   100.55     LegendNANA
11:00 -1.3 -3.9 83 0.0 2 LegendMM   100.52     LegendNANA
12:00 -1.4 -3.5 86 0.5 35 LegendMM   100.45     LegendNANA
13:00 -1.7 -3.5 87 0.3 35 LegendMM   100.40     LegendNANA
14:00 -1.6 -4.5 80 0.0 34 LegendMM   100.38     LegendNANA
15:00 -1.3 -5.0 76 0.0 32 LegendMM   100.36     LegendNANA
16:00 -1.6 -4.8 79 0.0 31 6   100.36   -4 LegendNANA
17:00 -2.2 -5.1 80 0.0 31 8   100.37   -5 LegendNANA
18:00 -2.3 -6.2 75 0.0 32 10   100.43   -6 LegendNANA
19:00 -2.8 -6.7 75 0.0 30 12   100.49   -7 LegendNANA
20:00 -3.5 -7.7 73 0.0 31 14   100.55   -9 LegendNANA
21:00 -3.9 -7.8 75 0.0 30 13   100.58   -9 LegendNANA
22:00 -4.3 -8.3 74 0.0 30 14   100.60   -9 LegendNANA
23:00 -4.6 -8.2 76 0.0 29 14   100.62   -10 LegendNANA

Notes on Data Quality.

Legend

  • E = Estimated
  • M = Missing
  • NA = Not Available*
  • [empty] = Indicates an unobserved value
Date modified: